Date String (YYYY-MM-DD hh:mm:ss) UTC,Instrument flags,absolute air pressure of the measurement (hPa),sample flow rate (lpm),inlet stack bypass flow (lpm),air temperature of the measurement (°C),ambient temperature measured by the external sensor (°C),aerosol sample conditioner tube jacket temperature (°C),OPC LED temperature (°C),internal box temperature (°C),relative humidity of the measurement (%),span deviation,mass concentration of particles derived from Lorenz-Mie calculation of OPC scattering (μg/m³),mass concentration of particles derived from Lorenz-Mie calculation of OPC scattering (μg/m³),mass concentration of particles derived from Lorenz-Mie calculation of OPC scattering (μg/m³)
DateTimeUTC,F1_M11,P_M11,Q1_M11,Q2_M11,T1_M11,T2_M11,T3_M11,T4_M11,T5_M11,U1_M11,ZSPAN_M11,X0_M11,X2_M11,X1_M11
2023-10-22 02:00:00,SystemResetWarning,0827.3,5.00,000.00,028.3,027.1,000.0,036.7,030.1,11.9,0000.0,0017.62,0004.25,0002.36
2023-10-22 02:01:00,SystemResetWarning,0827.4,5.00,000.00,028.4,027.2,000.0,036.7,030.1,11.9,0000.0,0016.73,0004.19,0002.37
2023-10-22 02:02:00,SystemResetWarning,0827.4,5.00,000.00,028.4,027.3,000.0,036.7,030.2,11.9,0000.0,0016.75,0004.20,0002.38
2023-10-22 02:03:00,SystemResetWarning,0827.4,5.00,000.00,028.4,027.3,000.0,036.8,030.2,11.8,0000.0,0016.64,0004.25,0002.38
2023-10-22 02:04:00,SystemResetWarning,0827.4,5.00,000.00,028.5,027.3,000.0,036.8,030.3,11.8,0000.0,0016.59,0004.24,0002.38
2023-10-22 02:05:00,SystemResetWarning,0827.3,4.99,000.00,028.5,025.9,000.0,036.8,030.2,11.8,0000.0,0016.53,0004.30,0002.38
2023-10-22 02:06:00,SystemResetWarning,0827.4,5.00,000.00,028.4,024.6,000.0,036.7,030.0,11.9,0000.0,0016.84,0004.35,0002.38
2023-10-22 02:07:00,SystemResetWarning,0827.3,5.00,000.00,028.3,024.4,000.0,036.7,029.8,11.9,0000.0,0015.34,0004.38,0002.39
2023-10-22 02:08:00,SystemResetWarning,0827.3,5.01,000.00,028.2,024.7,000.0,036.7,029.7,12.0,0000.0,0014.54,0004.38,0002.38
2023-10-22 02:09:00,SystemResetWarning,0827.2,5.00,000.00,028.1,025.1,000.0,036.7,029.7,12.0,0000.0,0014.41,0004.33,0002.37
2023-10-22 02:10:00,SystemResetWarning,0827.3,5.00,000.00,028.1,025.5,000.0,036.7,029.8,12.0,0000.0,0014.69,0004.35,0002.40
2023-10-22 02:11:00,SystemResetWarning,0827.3,5.00,000.00,028.1,025.8,000.0,036.7,029.8,12.1,0000.0,0014.77,0004.37,0002.42
2023-10-22 02:12:00,SystemResetWarning,0827.3,4.99,000.00,028.1,026.1,000.0,036.7,029.9,12.1,0000.0,0015.32,0004.40,0002.43
2023-10-22 02:13:00,SystemResetWarning,0827.4,5.00,000.00,028.2,026.3,000.0,036.7,029.9,12.1,0000.0,0014.87,0004.39,0002.47
2023-10-22 02:14:00,SystemResetWarning,0827.4,5.01,000.00,028.2,026.5,000.0,036.7,030.0,12.0,0000.0,0015.33,0004.30,0002.48
2023-10-22 02:15:00,SystemResetWarning,0827.4,5.01,000.00,028.2,026.7,000.0,036.7,030.0,12.0,0000.0,0015.59,0004.30,0002.48
2023-10-22 02:16:00,SystemResetWarning,0827.3,5.00,000.00,028.2,026.8,000.0,036.7,030.1,12.0,0000.0,0015.11,0004.27,0002.49
2023-10-22 02:17:00,SystemResetWarning,0827.4,5.00,000.00,028.3,026.9,000.0,036.7,030.1,11.9,0000.0,0014.66,0004.22,0002.49
2023-10-22 02:18:00,SystemResetWarning,0827.4,5.00,000.00,028.3,027.0,000.0,036.7,030.1,11.9,0000.0,0014.75,0004.16,0002.49
2023-10-22 02:19:00,SystemResetWarning,0827.6,5.00,000.00,028.3,027.1,000.0,036.7,030.1,11.9,0000.0,0015.73,0004.13,0002.51
2023-10-22 02:20:00,SystemResetWarning,0827.6,5.00,000.00,028.4,027.2,000.0,036.8,030.2,11.8,0000.0,0015.56,0004.16,0002.51
2023-10-22 02:21:00,SystemResetWarning,0828.0,5.00,000.00,028.4,027.3,000.0,036.8,030.2,11.8,0000.0,0014.51,0004.09,0002.49
2023-10-22 02:22:00,SystemResetWarning,0827.9,5.00,000.00,028.4,027.3,000.0,036.8,030.2,11.7,0000.0,0014.65,0004.08,0002.46
2023-10-22 02:23:00,SystemResetWarning,0827.7,5.00,000.00,028.5,027.4,000.0,036.8,030.3,11.7,0000.0,0015.60,0004.07,0002.44
2023-10-22 02:24:00,SystemResetWarning,0827.8,5.00,000.00,028.5,027.4,000.0,036.8,030.3,11.7,0000.0,0016.54,0004.08,0002.43
2023-10-22 02:25:00,SystemResetWarning,0827.8,4.98,000.00,028.5,026.5,000.0,036.8,030.3,11.7,0000.0,0016.91,0004.13,0002.44
2023-10-22 02:26:00,SystemResetWarning,0827.9,5.01,000.00,028.5,024.7,000.0,036.8,030.1,11.7,0000.0,0017.14,0004.14,0002.45
2023-10-22 02:27:00,SystemResetWarning,0827.7,5.01,000.00,028.4,024.4,000.0,036.7,029.9,11.7,0000.0,0017.26,0004.10,0002.44
2023-10-22 02:28:00,SystemResetWarning,0827.6,4.99,000.00,028.3,024.6,000.0,036.7,029.7,11.8,0000.0,0018.27,0004.12,0002.43
2023-10-22 02:29:00,SystemResetWarning,0827.5,5.00,000.00,028.2,025.0,000.0,036.8,029.7,11.8,0000.0,0018.80,0004.14,0002.42
2023-10-22 02:30:00,SystemResetWarning,0827.6,5.00,000.00,028.2,025.4,000.0,036.7,029.8,11.8,0000.0,0018.02,0004.12,0002.41
2023-10-22 02:31:00,SystemResetWarning,0827.6,5.00,000.00,028.2,025.7,000.0,036.7,029.8,11.8,0000.0,0017.87,0004.12,0002.41
2023-10-22 02:32:00,SystemResetWarning,0827.6,5.01,000.00,028.2,026.0,000.0,036.7,029.9,11.8,0000.0,0019.30,0004.16,0002.42
2023-10-22 02:33:00,SystemResetWarning,0827.5,5.00,000.00,028.2,026.3,000.0,036.7,029.9,11.8,0000.0,0020.12,0004.15,0002.42
2023-10-22 02:34:00,SystemResetWarning,0827.7,4.99,000.00,028.2,026.5,000.0,036.7,030.0,11.8,0000.0,0019.35,0004.15,0002.43
2023-10-22 02:35:00,SystemResetWarning,0827.9,5.00,000.00,028.2,026.7,000.0,036.7,030.0,11.8,0000.0,0019.16,0004.10,0002.39
2023-10-22 02:36:00,SystemResetWarning,0827.6,5.01,000.00,028.3,026.8,000.0,036.8,030.1,11.8,0000.0,0019.13,0004.08,0002.39
2023-10-22 02:37:00,SystemResetWarning,0827.4,5.01,000.00,028.3,027.0,000.0,036.8,030.1,11.7,0000.0,0019.63,0004.07,0002.38
2023-10-22 02:38:00,SystemResetWarning,0827.4,5.00,000.00,028.3,027.1,000.0,036.8,030.2,11.6,0000.0,0019.60,0004.12,0002.38
2023-10-22 02:39:00,SystemResetWarning,0827.4,4.99,000.00,028.4,027.2,000.0,036.8,030.2,11.6,0000.0,0018.76,0004.13,0002.39
2023-10-22 02:40:00,SystemResetWarning,0827.4,5.00,000.00,028.4,027.3,000.0,036.8,030.2,11.5,0000.0,0018.27,0004.16,0002.39
2023-10-22 02:41:00,SystemResetWarning,0827.9,5.00,000.00,028.5,027.4,000.0,036.8,030.2,11.5,0000.0,0018.83,0004.22,0002.38
2023-10-22 02:42:00,SystemResetWarning,0827.7,5.01,000.00,028.5,027.4,000.0,036.9,030.3,11.5,0000.0,0018.84,0004.21,0002.37
2023-10-22 02:43:00,SystemResetWarning,0827.5,5.00,000.00,028.5,027.5,000.0,036.9,030.3,11.5,0000.0,0018.21,0004.18,0002.35
2023-10-22 02:44:00,SystemResetWarning,0827.6,5.00,000.00,028.6,027.0,000.0,036.9,030.3,11.5,0000.0,0017.08,0004.14,0002.35
2023-10-22 02:45:00,SystemResetWarning,0827.5,4.99,000.00,028.5,025.2,000.0,036.8,030.1,11.5,0000.0,0015.91,0004.09,0002.34
2023-10-22 02:46:00,SystemResetWarning,0827.4,5.01,000.00,028.4,024.6,000.0,036.8,030.0,11.6,0000.0,0015.10,0004.11,0002.35
2023-10-22 02:47:00,SystemResetWarning,0827.9,5.00,000.00,028.3,024.7,000.0,036.8,029.8,11.6,0000.0,0014.94,0004.10,0002.36
2023-10-22 02:48:00,SystemResetWarning,0827.6,5.00,000.00,028.3,025.1,000.0,036.8,029.8,11.6,0000.0,0014.11,0004.10,0002.37
2023-10-22 02:49:00,SystemResetWarning,0827.6,5.00,000.00,028.2,025.4,000.0,036.8,029.8,11.6,0000.0,0014.19,0004.05,0002.36
2023-10-22 02:50:00,SystemResetWarning,0827.4,5.00,000.00,028.2,025.8,000.0,036.8,029.9,11.6,0000.0,0014.76,0004.05,0002.35
2023-10-22 02:51:00,SystemResetWarning,0827.4,4.99,000.00,028.2,026.1,000.0,036.8,029.9,11.6,0000.0,0015.31,0004.03,0002.35
2023-10-22 02:52:00,SystemResetWarning,0827.4,5.00,000.00,028.2,026.3,000.0,036.8,030.0,11.6,0000.0,0015.00,0004.00,0002.35
2023-10-22 02:53:00,SystemResetWarning,0827.4,5.00,000.00,028.3,026.6,000.0,036.8,030.0,11.5,0000.0,0015.29,0003.99,0002.34
2023-10-22 02:54:00,SystemResetWarning,0827.4,5.00,000.00,028.3,026.7,000.0,036.8,030.1,11.5,0000.0,0015.38,0003.96,0002.35
2023-10-22 02:55:00,SystemResetWarning,0827.4,5.01,000.00,028.3,026.9,000.0,036.8,030.1,11.6,0000.0,0016.46,0003.99,0002.34
2023-10-22 02:56:00,SystemResetWarning,0827.6,5.01,000.00,028.4,027.0,000.0,036.8,030.2,11.6,0000.0,0017.15,0004.04,0002.36
2023-10-22 02:57:00,SystemResetWarning,0827.9,5.00,000.00,028.4,027.1,000.0,036.8,030.2,11.7,0000.0,0017.93,0004.03,0002.35
2023-10-22 02:58:00,SystemResetWarning,0827.5,5.00,000.00,028.4,027.2,000.0,036.8,030.2,11.8,0000.0,0018.09,0004.03,0002.34
2023-10-22 02:59:00,SystemResetWarning,0827.5,4.99,000.00,028.5,027.3,000.0,036.8,030.2,11.6,0000.0,0018.98,0004.01,0002.31
